Location: *
(46.9488°N, 7.1580°E)
Time: 12:02:45
(UTC+00:00)

Daily predictions for brighter satellites

Satellite Brightness Start Highest point End
(mag) Time Altitude Azimuth Time Altitude Azimuth Time Altitude Azimuth
Cosmos 676 Rocket 4.3 19:57:56 10° NNW 20:03:14 70° WSW 20:08:27 10° S
Cosmos 1975 Rocket 3.6 19:59:03 10° SSW 20:03:27 65° W 20:07:50 10° N
SL-24 R/B 4.4 20:00:11 10° SSE 20:04:32 66° ENE 20:09:32 10° N
ATLAS 5 CENTAUR R/B 3.8 19:51:43 10° NW 20:05:41 61° WSW 20:09:46 10° SSE
Tiangong 3.5 20:05:40 10° SW 20:07:01 12° SSW 20:08:22 10° S
Cosmos 2315 Rocket 4.2 20:01:53 10° S 20:08:13 84° W 20:14:32 10° N
SPOT 3 Rocket 3.9 20:06:29 10° SSE 20:11:33 56° ENE 20:16:39 10° N
Cosmos 2074 Rocket 4.3 20:06:46 10° N 20:12:54 52° ENE 20:18:57 10° SSE
Ariane Rocket 3.1 20:07:59 10° SSE 20:13:05 86° ENE 20:18:12 10° NNW
Cosmos 1544 Rocket 3.7 20:15:23 10° NNW 20:19:43 76° W 20:24:03 10° S
Lacrosse 5 rocket 3.7 20:19:16 10° W 20:21:09 13° SW 20:23:05 10° SSW
Cosmos 1656 3.7 20:16:51 10° NNW 20:22:21 83° WSW 20:27:53 10° SSE
GEOS 3 Rocket 4.2 20:18:04 10° SSE 20:23:02 51° SW 20:28:02 10° NW
ATLAS 2AS CENTAUR R/B 3.5 20:22:07 10° NW 20:28:47 46° WSW 20:35:03 10° S
MetOp-B 4.3 20:25:03 10° SSE 20:30:24 81° WSW 20:35:47 10° NNW
Cosmos 1850 Rocket 4.0 20:26:01 10° NNW 20:31:15 83° ENE 20:36:19 11° SSE
SL-16 R/B 4.4 20:29:52 10° N 20:32:53 14° NE 20:35:54 10° ENE
Cosmos 1980 Rocket 3.2 20:28:44 10° NNW 20:33:58 36° NE 20:39:07 10° ESE
Cosmos 1697 Rocket 2.9 20:28:51 10° NNW 20:34:27 63° ENE 20:39:32 12° SE
USA 32 4.4 20:29:49 10° SSW 20:35:01 70° W 20:40:15 10° N
Cosmos 2344 4.5 20:27:51 10° NW 20:36:29 66° NE 20:48:14 11° SE
SL-8 R/B 3.8 20:32:11 10° WNW 20:36:58 66° SSW 20:41:22 12° ESE
Cosmos 1331 Rocket 4.2 20:32:45 10° S 20:37:52 52° ESE 20:43:00 10° NNE
SPOT 1/Viking Rocket 4.4 20:35:56 10° S 20:40:52 47° W 20:45:52 10° NNW
COSMOS 2406 3.7 20:37:53 10° S 20:43:11 39° ESE 20:48:30 10° NE
Spot 2 Rocket 3.6 20:38:47 11° SSE 20:43:35 70° ENE 20:48:41 10° N
Cosmos 2154 Rocket 4.1 20:38:22 10° N 20:44:33 63° ENE 20:50:11 12° SSE
X-37B 0.7 20:42:29 10° W 20:45:11 45° SSW 20:47:01 18° SE
CZ-2C R/B 4.2 20:43:51 10° NNE 20:48:11 42° E 20:51:58 13° SSE
SPOT 5 2.6 20:49:45 13° SSE 20:53:35 83° ENE 20:57:56 10° NNW
Cosmos 1703 3.3 20:52:10 10° SSW 20:55:59 78° W 20:59:52 10° N
Cosmos 2084 Rocket 3.4 20:53:11 10° NW 20:57:04 65° NE 21:00:03 17° SE
RESURS DK-1 3.0 20:54:00 10° NW 20:58:00 50° WSW 21:01:19 14° S
Cosmos 1452 Rocket 4.0 20:53:48 10° SSW 20:59:01 64° WNW 21:04:16 10° NNE
Cosmos 1833 Rocket 2.7 20:53:37 10° SSW 20:59:13 85° ESE 21:04:53 10° NNE
Terra 1.9 20:56:28 16° SSE 21:00:16 67° ENE 21:05:00 10° N
CZ-4B R/B 3.6 20:59:37 10° NNW 21:01:55 21° WNW 21:04:11 10° WSW
Cosmos 967 Rocket 4.5 20:57:41 10° SSW 21:04:08 76° ESE 21:10:37 10° NE
Helios 1A Rocket 2.9 21:01:06 16° SSE 21:04:22 82° WSW 21:08:30 10° NNW
Cosmos 1110 Rocket 4.1 20:59:42 10° SSW 21:04:58 87° WNW 21:10:19 10° NNE
FALCON 9 DEB 4.5 21:03:13 10° NW 21:06:15 35° NNE 21:09:17 10° E
ERS-1 Rocket 3.0 21:02:33 15° SSE 21:06:49 86° WSW 21:11:53 10° NNW
Cosmos 1892 Rocket 4.1 21:04:15 18° SSE 21:07:03 41° E 21:11:10 10° NNE
Resurs 01 Rocket 3.9 21:04:23 10° SW 21:07:38 20° W 21:10:55 10° NW
Cosmos 1302 Rocket 4.3 21:03:52 13° S 21:08:19 47° ESE 21:13:17 10° NNE
Cosmos 2322 Rocket 4.3 21:05:01 10° N 21:08:46 18° NE 21:12:32 10° E
Cosmos 2228 3.3 21:07:35 10° NNW 21:11:47 63° W 21:15:15 15° S
Cosmos 2058 Rocket 3.8 21:08:35 10° N 21:12:45 39° ENE 21:15:19 20° SE
Cosmos 2184 Rocket 4.5 21:09:39 10° NNW 21:15:43 59° W 21:21:47 10° S
Cosmos 1825 3.9 21:15:03 16° ESE 21:16:01 17° E 21:18:30 10° NE
Cosmos 1408 3.2 21:16:14 25° SE 21:17:33 34° E 21:20:42 10° NNE
Lacrosse 5 4.1 21:15:52 10° W 21:18:19 13° WSW 21:20:45 10° SSW
Cosmos 2278 4.4 21:14:47 10° NNW 21:20:18 46° NE 21:24:23 18° ESE
Cosmos 968 Rocket 3.5 21:17:59 10° NNW 21:23:12 74° ENE 21:26:36 22° SSE
Cosmos 1328 3.8 21:22:06 16° S 21:25:16 86° WNW 21:29:17 10° N
USA 276 3.0 21:25:11 10° WNW 21:28:08 46° N 21:31:01 10° E
SJ 16-02 3.6 21:29:33 10° NNE 21:32:16 16° NE 21:34:56 10° E
Cosmos 2082 Rocket 2.2 21:27:22 10° SSW 21:33:01 68° ESE 21:38:42 10° NNE
Cosmos 1867 3.6 21:27:31 10° NW 21:33:02 81° NE 21:36:30 23° SE
ASTRO F (AKARI) 4.5 21:32:26 29° S 21:34:08 83° WSW 21:37:40 10° NNW
USA 267 3.6 21:30:53 10° ENE 21:37:01 42° SE 21:43:09 10° SSW
ARIANE 5 R/B 2.8 21:35:43 23° S 21:38:28 70° WSW 21:42:54 10° NNW
Cosmos 1606 Rocket 4.2 21:36:17 10° NNW 21:40:28 49° W 21:43:24 18° SSW
GP-B 3.3 21:37:03 10° N 21:41:27 58° E 21:43:35 28° SSE
Cosmos 2341 Rocket 4.0 21:36:34 10° N 21:42:55 81° E 21:47:01 23° SSE
Cosmos 2360 Rocket 4.2 21:40:42 10° N 21:44:55 21° NE 21:49:04 10° E
SAR-Lupe-4 3.8 21:42:08 10° NNE 21:45:39 52° E 21:46:46 36° SSE
Okean 1-7 Rocket 3.7 21:58:40 33° SSE 22:00:29 59° E 22:04:56 10° NNE
SAR-Lupe-1 4.0 21:58:38 10° NNE 22:02:14 84° WNW 22:03:39 35° SSW
Cosmos 1892 2.7 22:02:06 31° SSW 22:03:47 73° W 22:07:34 10° N
Cosmos 2181 Rocket 3.9 22:07:22 24° S 22:11:14 85° E 22:17:31 10° N
USA 234 3.7 22:05:23 10° ESE 22:11:49 62° NNE 22:18:16 10° NW
Cosmos 1633 3.2 22:12:09 34° ESE 22:12:25 35° E 22:15:37 10° NNE
Cosmos 1697 Rocket 4.4 22:13:43 10° NW 22:17:55 22° W 22:21:16 13° SW
Cosmos 1980 Rocket 2.9 22:12:43 10° NW 22:18:04 43° WSW 22:20:52 25° SSW
Cosmos 1821 Rocket 4.4 22:12:08 10° N 22:18:14 53° ENE 22:21:23 28° SE
SL-16 R/B 2.5 22:12:39 10° NNW 22:18:16 59° ENE 22:21:23 26° SE
Cosmos 1992 Rocket 3.9 22:15:18 26° SSW 22:18:20 84° ESE 22:23:37 10° NNE
Cosmos 1486 Rocket 3.9 22:13:30 10° NNW 22:18:45 85° WSW 22:21:05 34° SSE
Cosmos 1932 4.4 22:14:07 10° SW 22:20:21 87° NW 22:26:44 10° NE
SL-4 R/B 4.2 22:23:23 10° E 22:23:23 10° E 22:23:28 10° E
Cosmos 1812 Rocket 3.9 22:16:14 10° N 22:20:38 56° ENE 22:22:08 37° SE
Cosmos 2219 Rocket 4.4 22:18:01 10° N 22:21:55 19° NE 22:25:50 10° E
Cosmos-2242 3.3 22:25:48 10° N 22:29:59 54° ENE 22:31:12 39° SE
ATLAS 5 CENTAUR R/B 1.2 22:29:23 29° SW 22:31:13 80° NW 22:35:25 10° NE
Cosmos 1602 Rocket 3.4 22:32:11 44° S 22:33:28 75° E 22:37:48 10° NNE
In-Cosmos 22 Rocket 4.5 22:30:22 22° SSW 22:33:55 62° WNW 22:39:19 10° N
Cosmos 1869 3.6 22:30:16 10° NNW 22:34:05 56° W 22:35:09 41° SSW
Cosmos 807 3.9 22:31:21 10° N 22:34:24 83° W 22:34:24 83° W
ERS-2 3.8 22:35:05 10° NE 22:37:40 20° E 22:37:40 20° E
Terra 4.1 22:35:39 10° SW 22:38:29 16° W 22:41:20 10° NW
Nadezhda 3 Rocket 4.2 22:36:22 32° SSE 22:39:06 57° E 22:45:08 10° NNE
ALOS 2 2.8 22:39:48 40° SE 22:41:13 63° ENE 22:45:34 10° N
FALCON 9 DEB 3.3 22:39:26 10° WNW 22:42:17 55° WSW 22:42:17 55° WSW
Cosmos 1354 Rocket 4.0 22:41:40 10° NNW 22:47:00 84° ENE 22:49:06 38° SSE
BREEZE-M DEB (TANK) 3.9 22:45:22 10° WNW 22:48:43 80° NNE 23:02:07 10° ESE
ADEOS Rocket 3.5 22:45:43 29° SSE 22:49:53 80° ENE 22:57:40 10° NNW
Cosmos 1825 3.4 22:49:40 26° WSW 22:51:03 36° WNW 22:54:33 10° N
Cosmos 2322 Rocket 2.2 22:48:04 10° NNW 22:53:48 78° ENE 22:56:24 34° SE
Cosmos 1626 Rocket 4.5 22:54:43 26° SW 22:56:39 42° WNW 23:00:49 10° N
Cosmos 1503 Rocket 4.1 22:51:29 10° NNW 22:56:46 68° WSW 22:58:35 40° S
Cosmos 1953 Rocket 4.3 22:58:43 35° ESE 22:59:38 39° E 23:03:45 10° NNE
USA 276 3.2 23:00:58 10° WNW 23:02:50 33° W 23:02:50 33° W
Cosmos 1777 Rocket 4.0 22:59:30 10° NNW 23:04:50 79° ENE 23:06:53 38° SSE
Cosmos 2333 Rocket 3.1 23:03:27 10° NNW 23:08:59 44° NE 23:12:52 19° ESE
Cosmos 1825 Rocket 3.4 23:08:18 53° SSE 23:09:14 77° E 23:13:36 10° NNE
CENTAUR R/B 4.2 23:09:34 14° ESE 23:10:43 15° ESE 23:14:05 10° ENE
SJ 16-02 1.3 23:06:54 10° NNW 23:11:20 72° WSW 23:12:19 51° S
Gbstr 26 Del rocket 3.2 23:11:09 49° SSE 23:11:23 50° SE 23:16:17 10° ENE
Cosmos 1340 Rocket 3.0 23:13:04 50° ESE 23:13:30 54° E 23:17:22 10° NNE
Cosmos 2082 Rocket 4.2 23:12:58 10° WSW 23:17:38 25° NW 23:22:17 10° N
H-2A R/B 3.8 23:15:31 10° N 23:19:41 61° WNW 23:20:55 41° SW
USA 267 3.5 23:13:47 10° NE 23:20:18 72° NNW 23:26:49 10° WSW
Cosmos 2058 2.9 23:26:08 52° SSW 23:27:03 74° W 23:31:15 10° N
Cosmos 2221 2.9 23:22:49 10° N 23:27:07 55° ENE 23:28:17 41° SE
Cosmos 1606 3.2 23:24:06 10° NNW 23:27:49 45° W 23:28:16 43° WSW
Cosmos 2360 Rocket 2.1 23:23:58 10° NNW 23:29:41 87° WSW 23:32:00 38° SSE
Cosmos 1842 Rocket 4.3 23:25:28 10° N 23:29:48 45° ENE 23:31:14 33° ESE
Cosmos 1934 Rocket 3.9 23:24:20 10° N 23:30:28 89° W 23:33:06 37° S
Nimbus 7 Rocket 4.5 23:28:15 10° NNE 23:34:12 68° ESE 23:36:36 37° S
Cosmos 2333 4.5 23:28:25 10° NNW 23:34:12 67° ENE 23:37:21 28° SE
Resurs 1-4 Rocket 4.5 23:33:51 10° ENE 23:35:17 11° E 23:36:43 10° ESE
Cosmos 1782 4.3 23:32:26 10° NNE 23:35:54 28° ENE 23:37:13 23° ESE
Cosmos 1833 4.1 23:39:58 40° S 23:41:59 75° ESE 23:47:36 10° NNE
NOSS 8 (A) 4.2 23:42:23 82° NNE 23:42:23 82° NNE 23:45:16 10° NE
Cosmos 44 3.1 23:41:21 51° S 23:42:18 68° ESE 23:46:46 10° NE
CZ-2D R/B 4.3 23:41:51 10° ENE 23:44:00 12° E 23:46:10 10° ESE
Cosmos 1339 Rocket 4.4 23:50:04 36° SSW 23:52:49 80° W 23:58:59 10° N
Cosmos 2237 Rocket 4.3 23:49:28 10° N 23:53:57 23° NE 23:58:23 10° E
